This demonstration page uses our WeatherBlox Daily Observations layout. Learn more.

Left ArrowRight Arrow

38.20091, -84.87328

Hourly Observations for January 31, 2020

Temp ( °F °C ) Dew Point ( °F °C ) Humidity (%) Winds ( mph kmh ) Pressure ( in mb ) Visibility ( mi km ) Precip ( " mm )
12:53 am 00:53 Cloudy 39 3.9 29 -1.7 67 67 NE 6 9 30.16 1021 10 16 0.00 0.00
1:53 am 01:53 Cloudy 38 3.3 29 -1.7 70 70 NE 5 7 30.14 1021 10 16 0.00 0.00
2:53 am 02:53 Cloudy 38 3.3 29 -1.7 70 70 NNE 3 6 30.15 1021 10 16 0.00 0.00
3:53 am 03:53 Cloudy 37 2.8 29 -1.7 73 73 ENE 5 7 30.14 1021 10 16 0.00 0.00
4:53 am 04:53 Cloudy 37 2.8 29 -1.7 73 73 ENE 3 6 30.12 1020 10 16 0.00 0.00
5:53 am 05:53 Cloudy 37 2.8 29 -1.7 73 73 ENE 3 6 30.12 1020 10 16 0.00 0.00
6:53 am 06:53 Cloudy 37 2.8 29 -1.7 73 73 NE 5 7 30.12 1020 10 16 0.00 0.00
7:44 am 07:44 Cloudy 37 2.8 29 -1.7 73 73 N 6 9 30.14 1021 10 16 0.00 0.00
7:53 am 07:53 Cloudy 37 2.8 29 -1.7 73 73 N 6 9 30.12 1020 10 16 0.00 0.00
8:07 am 08:07 Cloudy 37 2.8 29 -1.7 73 73 NNE 6 9 30.13 1020 10 16 0.00 0.00
8:53 am 08:53 Cloudy 37 2.8 30 -1.1 76 76 N 5 7 30.13 1020 10 16 0.00 0.00
9:53 am 09:53 Cloudy with Light Rain 36 2.2 32 0 86 86 NNW 5 7 30.16 1021 3 5 0.06 1.52
10:53 am 10:53 Cloudy with Light Rain 36 2.2 33 0.6 89 89 N 6 9 30.16 1022 5 8 0.05 1.27
11:06 am 11:06 Cloudy with Light Rain 36 2.2 33 0.6 89 89 N 3 6 30.19 1022 5 8 0.01 0.25
11:49 am 11:49 Cloudy 37 3 36 2 93 93 VRB 3 6 30.18 1022 7 11 0.01 0.25
11:53 am 11:53 Cloudy 38 3.3 35 1.7 89 89 NNE 3 6 30.16 1021 7 11 0.01 0.25
12:53 pm 12:53 Cloudy 39 3.9 36 2.2 89 89 Calm 30.14 1021 8 13 0.00 0.00
1:53 pm 13:53 Cloudy 41 5 37 2.8 86 86 Calm 30.12 1020 10 16 0.00 0.00
2:53 pm 14:53 Cloudy 42 5.6 38 3.3 85 85 Calm 30.10 1019 10 16 0.00 0.00
3:53 pm 15:53 Cloudy 43 6.1 38 3.3 82 82 Calm 30.10 1019 10 16 0.00 0.00
4:04 pm 16:04 Cloudy 43 6.1 38 3.3 82 82 Calm 30.10 1019 10 16 0.00 0.00
4:28 pm 16:28 Cloudy 43 6.1 38 3.3 82 82 Calm 30.10 1019 10 16 0.00 0.00
4:53 pm 16:53 Cloudy 43 6.1 38 3.3 82 82 Calm 30.10 1019 10 16 0.00 0.00
5:37 pm 17:37 Cloudy 43 6.1 38 3.3 82 82 Calm 30.11 1020 10 16 0.00 0.00
5:53 pm 17:53 Cloudy 43 6.1 38 3.3 82 82 Calm 30.10 1019 10 16 0.00 0.00
6:23 pm 18:23 Cloudy 42 5.6 38 3.3 85 85 Calm 30.11 1020 10 16 0.00 0.00
6:53 pm 18:53 Cloudy 42 5.6 39 3.9 89 89 Calm 30.11 1020 10 16 0.00 0.00
7:22 pm 19:22 Cloudy with Light Rain 41 5 39 3.9 93 93 N 3 6 30.12 1020 8 13 0.01 0.25
7:53 pm 19:53 Cloudy with Mist and Fog 41 5 39 3.9 93 93 NNE 3 6 30.11 1020 6 10 0.01 0.25
8:26 pm 20:26 Cloudy with Light Rain 41 5 39 3.9 93 93 NNE 3 6 30.12 1020 5 8 0.01 0.25
8:53 pm 20:53 Cloudy with Mist and Fog 41 5 39 3.9 93 93 NNE 5 7 30.10 1019 5 8 0.01 0.25
9:20 pm 21:20 Cloudy with Light Rain 41 5 39 3.9 93 93 N 3 6 30.12 1020 5 8 0.00 0.00
9:30 pm 21:30 Cloudy with Mist and Fog 41 5 39 3.9 93 93 NNE 3 6 30.12 1020 6 10 0.00 0.00
9:53 pm 21:53 Cloudy with Light Rain 41 5 38 3.3 89 89 NNE 5 7 30.10 1019 6 10 0.01 0.25
10:01 pm 22:01 Cloudy 41 5 39 3.9 93 93 NNE 3 6 30.12 1020 7 11 0.00 0.00
10:32 pm 22:32 Cloudy with Light Rain 41 5 39 3.9 93 93 NNE 3 6 30.12 1020 6 10 0.00 0.00
10:53 pm 22:53 Cloudy with Light Rain 40 4.4 38 3.3 93 93 Calm 30.09 1019 5 8 0.00 0.00
11:53 pm 23:53 Cloudy with Mist and Fog 40 4.4 38 3.3 93 93 NNE 3 6 30.09 1019 6 10 0.01 0.25

Powered by AerisWeather